RS-44 & BREEZE-KM R/B (44909 NORAD) Tracking and Keplerian Element Data

This shows tracking and keplerian element data for the satellite.

Feedback or suggestion? Click here.




ElementValue
Catalog44909
NameRS-44 & BREEZE-KM R/B
Epoch Orbit13551
Epoch Day324.86763346
Epoch Year2022
RAAN126.3759
Inclination82.518
Eccentricity0.0216656
Argument of Perigee314.2005
Mean Anonmoly44.1472
Mean Motion12.79716677
Decay Rate1.4E-07
L11 44909U 19096E 22324.86763346 .00000014 00000+0 19713-4 0 9996
L22 44909 82.5180 126.3759 0216656 314.2005 44.1472 12.79716677135516



Live tracking and technical data element details for RS-44 & BREEZE-KM R/B (NORAD 44909). RS-44 & BREEZE-KM R/B can be tracked NOW for your location showing map with azimuth and elevation plus other details from your city location.







IsCatalogInMostPopularTable: catalog: 44909, numindb: 1618
Update: records affected: 1



GetName: 44909 RS-44 & BREEZE-KM R/B

Hit Count: updated at: Sun, 04 Dec 2022 21:03:21 GMT